TimeCST,TemperatureF,Dew PointF,Humidity,Sea Level PressureIn,VisibilityMPH,Wind Direction,Wind SpeedMPH,Gust SpeedMPH,PrecipitationIn,Events,Conditions,WindDirDegrees,DateUTC
12:15 AM,-18.6,-23.6,78,30.28,10.0,Calm,Calm,-,N/A,,Clear,0,2014-01-03 06:15:00
12:35 AM,-18.6,-23.3,79,30.26,10.0,Calm,Calm,-,N/A,,Clear,0,2014-01-03 06:35:00
12:55 AM,-21.3,-26.5,77,30.27,10.0,Calm,Calm,-,N/A,,Clear,0,2014-01-03 06:55:00
1:15 AM,-19.8,-25.1,77,30.27,10.0,Calm,Calm,-,N/A,,Clear,0,2014-01-03 07:15:00
1:35 AM,-22.7,-28.1,76,30.26,10.0,Calm,Calm,-,N/A,,Clear,0,2014-01-03 07:35:00
1:55 AM,-23.4,-28.7,77,30.26,10.0,SSE,4.6,-,N/A,,Clear,160,2014-01-03 07:55:00
2:15 AM,-22.0,-27.2,77,30.26,10.0,Calm,Calm,-,N/A,,Clear,0,2014-01-03 08:15:00
2:35 AM,-21.6,-27.0,76,30.26,10.0,South,3.5,-,N/A,,Clear,180,2014-01-03 08:35:00
2:55 AM,-20.6,-26.0,76,30.26,7.0,South,4.6,-,N/A,,Clear,170,2014-01-03 08:55:00
3:15 AM,-20.2,-25.2,78,30.25,10.0,SSE,3.5,-,N/A,,Clear,160,2014-01-03 09:15:00
3:35 AM,-17.1,-21.5,81,30.24,10.0,SSE,3.5,-,N/A,,Clear,160,2014-01-03 09:35:00
3:55 AM,-14.8,-19.3,80,30.22,10.0,Calm,Calm,-,N/A,,Clear,0,2014-01-03 09:55:00
4:15 AM,-16.2,-21.1,79,30.22,10.0,Calm,Calm,-,N/A,,Clear,0,2014-01-03 10:15:00
4:35 AM,-18.6,-24.0,76,30.21,10.0,Calm,Calm,-,N/A,,Clear,0,2014-01-03 10:35:00
4:55 AM,-17.5,-22.4,79,30.20,10.0,SSE,3.5,-,N/A,,Clear,160,2014-01-03 10:55:00
5:15 AM,-17.5,-22.9,76,30.20,10.0,Calm,Calm,-,N/A,,Clear,0,2014-01-03 11:15:00
5:35 AM,-14.8,-19.5,79,30.19,10.0,SSE,3.5,-,N/A,,Scattered Clouds,160,2014-01-03 11:35:00
5:55 AM,-11.4,-15.9,80,30.18,10.0,SSE,6.9,-,N/A,,Scattered Clouds,160,2014-01-03 11:55:00
6:15 AM,-10.5,-15.2,80,30.18,10.0,SSE,6.9,-,N/A,,Mostly Cloudy,160,2014-01-03 12:15:00
6:35 AM,-9.6,-14.3,80,30.15,10.0,SSE,9.2,-,N/A,,Overcast,160,2014-01-03 12:35:00
6:55 AM,-8.7,-13.5,79,30.15,10.0,SSE,6.9,-,N/A,,Overcast,160,2014-01-03 12:55:00
7:15 AM,-7.8,-12.5,80,30.13,10.0,SSE,9.2,-,N/A,,Overcast,160,2014-01-03 13:15:00
7:35 AM,-7.1,-12.1,79,30.12,10.0,SSE,9.2,-,N/A,,Scattered Clouds,160,2014-01-03 13:35:00
7:55 AM,-6.3,-11.2,79,30.12,10.0,South,10.4,-,N/A,,Clear,170,2014-01-03 13:55:00
8:15 AM,-5.6,-10.3,80,30.12,10.0,SSE,9.2,-,N/A,,Mostly Cloudy,160,2014-01-03 14:15:00
8:35 AM,-4.9,-9.6,80,30.11,10.0,SSE,9.2,-,N/A,,Overcast,160,2014-01-03 14:35:00
8:55 AM,-4.4,-9.4,79,30.10,10.0,SSE,8.1,-,N/A,,Overcast,160,2014-01-03 14:55:00
9:15 AM,-3.1,-7.6,81,30.08,10.0,SSE,11.5,-,N/A,,Overcast,160,2014-01-03 15:15:00
9:35 AM,-1.1,-6.0,80,30.07,10.0,South,12.7,-,N/A,,Overcast,170,2014-01-03 15:35:00
9:55 AM,-0.4,-5.4,79,30.05,10.0,South,15.0,-,N/A,,Overcast,170,2014-01-03 15:55:00
10:15 AM,0.5,-5.1,77,30.04,10.0,SSE,16.1,-,N/A,,Overcast,160,2014-01-03 16:15:00
10:35 AM,1.4,-5.3,74,30.01,10.0,SSE,15.0,-,N/A,,Overcast,160,2014-01-03 16:35:00
10:55 AM,1.9,-5.1,72,29.99,10.0,South,16.1,-,N/A,,Overcast,170,2014-01-03 16:55:00
11:15 AM,2.1,-5.1,72,29.96,10.0,SSE,16.1,-,N/A,,Overcast,160,2014-01-03 17:15:00
11:35 AM,3.2,-5.3,68,29.94,10.0,South,17.3,23.0,N/A,,Overcast,170,2014-01-03 17:35:00
11:55 AM,4.1,-5.1,66,29.91,10.0,SSE,17.3,21.9,N/A,,Overcast,160,2014-01-03 17:55:00
12:15 PM,5.0,-4.4,65,29.87,10.0,SSE,18.4,25.3,N/A,,Overcast,160,2014-01-03 18:15:00
12:35 PM,5.9,-3.3,66,29.86,10.0,SSE,20.7,-,N/A,,Overcast,160,2014-01-03 18:35:00
12:55 PM,6.4,-1.8,69,29.83,10.0,South,20.7,27.6,N/A,,Overcast,170,2014-01-03 18:55:00
1:15 PM,6.8,-1.3,69,29.82,10.0,SSE,19.6,26.5,N/A,,Overcast,160,2014-01-03 19:15:00
1:35 PM,7.5,-0.4,70,29.80,10.0,South,20.7,26.5,N/A,,Overcast,170,2014-01-03 19:35:00
1:55 PM,8.4,0.5,70,29.79,10.0,South,23.0,28.8,N/A,,Overcast,170,2014-01-03 19:55:00
2:15 PM,8.6,1.0,71,29.76,10.0,SSE,20.7,29.9,N/A,,Overcast,160,2014-01-03 20:15:00
2:35 PM,9.7,1.9,71,29.74,10.0,SSE,21.9,26.5,N/A,,Overcast,160,2014-01-03 20:35:00
2:55 PM,10.2,1.4,68,29.70,10.0,SSE,16.1,27.6,N/A,,Mostly Cloudy,150,2014-01-03 20:55:00
3:15 PM,10.0,1.4,68,29.71,10.0,SSE,12.7,19.6,N/A,,Scattered Clouds,160,2014-01-03 21:15:00
3:35 PM,10.2,2.3,70,29.71,10.0,SSE,13.8,19.6,N/A,,Mostly Cloudy,160,2014-01-03 21:35:00
3:55 PM,11.1,3.4,71,29.69,10.0,SSE,18.4,24.2,N/A,,Scattered Clouds,160,2014-01-03 21:55:00
4:15 PM,10.9,3.6,72,29.68,10.0,SSE,16.1,-,N/A,,Mostly Cloudy,160,2014-01-03 22:15:00
4:35 PM,11.3,3.9,72,29.68,10.0,South,18.4,25.3,N/A,,Overcast,170,2014-01-03 22:35:00
4:55 PM,11.8,4.5,72,29.66,10.0,South,16.1,23.0,N/A,,Overcast,170,2014-01-03 22:55:00
5:15 PM,12.2,4.8,72,29.66,10.0,South,15.0,23.0,N/A,,Overcast,180,2014-01-03 23:15:00
5:35 PM,12.2,5.2,73,29.65,10.0,South,17.3,-,N/A,,Overcast,180,2014-01-03 23:35:00
5:55 PM,12.2,5.5,75,29.64,10.0,South,16.1,23.0,N/A,,Overcast,180,2014-01-03 23:55:00
6:15 PM,12.2,5.7,75,29.64,10.0,South,16.1,23.0,N/A,,Overcast,170,2014-01-04 00:15:00
6:35 PM,12.2,5.9,76,29.63,10.0,South,16.1,-,N/A,,Overcast,170,2014-01-04 00:35:00
6:55 PM,12.2,6.1,76,29.63,10.0,South,16.1,20.7,N/A,,Overcast,170,2014-01-04 00:55:00
7:15 PM,12.6,6.6,77,29.62,10.0,South,13.8,-,N/A,,Overcast,170,2014-01-04 01:15:00
7:35 PM,12.7,6.8,77,29.61,10.0,South,18.4,-,N/A,,Overcast,170,2014-01-04 01:35:00
7:55 PM,12.9,7.2,78,29.61,10.0,South,13.8,-,N/A,,Overcast,170,2014-01-04 01:55:00
8:15 PM,13.1,7.7,79,29.60,10.0,South,13.8,20.7,N/A,,Overcast,170,2014-01-04 02:15:00
8:35 PM,13.6,8.1,78,29.59,10.0,South,15.0,-,N/A,,Overcast,180,2014-01-04 02:35:00
8:55 PM,14.2,8.4,78,29.59,10.0,South,13.8,20.7,N/A,,Overcast,190,2014-01-04 02:55:00
9:15 PM,14.9,9.1,78,29.58,10.0,South,15.0,-,N/A,,Overcast,180,2014-01-04 03:15:00
9:35 PM,15.3,9.5,78,29.57,10.0,South,16.1,-,N/A,,Overcast,180,2014-01-04 03:35:00
9:55 PM,15.8,9.9,77,29.56,10.0,South,15.0,21.9,N/A,,Overcast,180,2014-01-04 03:55:00
10:15 PM,16.2,10.2,77,29.56,10.0,South,17.3,23.0,N/A,,Overcast,190,2014-01-04 04:15:00
10:35 PM,16.7,10.8,77,29.54,10.0,South,17.3,23.0,N/A,,Overcast,190,2014-01-04 04:35:00
10:55 PM,17.2,11.3,78,29.54,10.0,South,16.1,24.2,N/A,,Overcast,190,2014-01-04 04:55:00
11:15 PM,17.4,11.3,77,29.53,10.0,South,17.3,23.0,N/A,,Overcast,180,2014-01-04 05:15:00
11:35 PM,17.4,11.7,78,29.52,10.0,South,15.0,24.2,N/A,,Overcast,180,2014-01-04 05:35:00
11:55 PM,17.4,11.8,79,29.51,10.0,South,17.3,-,N/A,,Overcast,190,2014-01-04 05:55:00